Location: Newark
(25.6108°S, 54.5803°W)
Time: 17:24:23
(UTC+00:00)

Courier 1B Rocket - Pass Details

Date: 02 November 2020
Orbit: 920 x 1202 km, 28.2° (Epoch: 22 November)

Event Time Altitude Azimuth Distance (km) Brightness Sun altitude
Rises 13:54:24 0° 261° (W) 3,762 7.8 67.0°
Reaches altitude 10° 13:57:23 10° 269° (W) 2,764 7.3 67.6°
Maximum altitude 14:03:21 35° 333° (NNW) 1,486 6.5 68.8°
Drops below altitude 10° 14:09:01 10° 37° (NE) 2,625 7.7 69.9°
Sets 14:11:48 0° 46° (NE) 3,550 8.2 70.5°
